sat.trackr.live / text

‹ back to catalog

STARLINK-33665

NORAD 63281 · 2025-053S

PAYLOAD ACTIVE UNKNOWN

§ Identity

Operator
Country
US
Launch date
2025-03-15
Launch site
AFETR
Launch vehicle
Mass (kg)
RCS (m²)

Purposes: comms

External: N2YO · Heavens-Above · Gunter

§ Orbital elements

Epoch: 2026-09-20T13:40:02.678880Z

Period
94.27 min
Inclination
42.9948°
Eccentricity
0.0000491
Mean motion
15.27585402 rev/d
Perigee alt
482.7 km
Apogee alt
483.4 km
Semi-major
6,861.2 km
B*
3.2418e-4
RAAN
220.6855°
Arg perigee
314.2920°
Mean anomaly
45.7891°
Rev number
8,600

§ Raw data

STARLINK-336651 63281U 25053S   26263.56947545  .00008671  00000+0  32418-3 0  99912 63281  42.9948 220.6855 0000491 314.2920  45.7891 15.27585402 86008

JSON: /api/v1/satellites/63281 · /tle

For live sub-satellite position, see the globe view (requires WebGL).

§ Visibility from observer

Set your observer location to see the next 7 days of passes ≥ 10°. The values pass through the URL so the page stays shareable.

No JS? Fill the form by hand. The geolocation button needs JavaScript.